Weather in Zabolotye

Russia / Tver Oblast     57°18′43″N   34°44′44″E
temp.,
°C
wind,
m/s
gust,
m/s
humid.,
%
clouds,
%
prec.,
mm/h
press.,
hPa
HPBL,
m
18 may, tue
tue1800:00+16ese412975 0.5 1008329
03:00+16ese412976 0.6 1007359
06:00+16ese3119699 0.0 1006349
09:00+21se4107871 0.0 1006583
12:00+26se611472 0.0 10061343
15:00+28sse512406 0.0 10063168
18:00+25se51144100 0.0 10051314
21:00+18ese3156320 0.0 1005444
19 may, wed
wed1900:00+18se5166645 0.0 1005680
03:00+16ese411857 0.0 1005330
06:00+16ese310905 0.0 1005357
09:00+20se5117642 0.4 1005900
12:00+20sse610748 1.6 10061310
15:00+24sse6114818 1.8 10062409
18:00+22s4105762 0.1 10051734
21:00+16sse228449 0.1 100612
20 may, thu
thu2000:00+14ese2294100 0.0 100620
03:00+13e2297100 0.1 100539
06:00+14e289796 0.6 1004297
09:00+19ese4781100 0.8 1003752
12:00+20se6127491 1.4 10021747
15:00+20sse712610 2.5 10021648
18:00+17se6137080 0.5 10011566
21:00+13se61286100 0.9 10011011
21 may, fri
fri2100:00+11sse51092100 0.3 1000715
03:00+10wsw4891100 0.4 1002613
06:00+9w51091100 0.1 10051023
09:00+10w51184100 0.1 1008834
12:00+15w585097 0.0 10101491
15:00+18w57365 0.0 10112031
18:00+17wsw4646100 0.0 10112158
21:00+11sw2768100 0.0 1014128
22 may, sat
sat2200:00+8wsw23806 0.0 101546
03:00+7wsw23835 0.0 101641
06:00+8wsw13750 0.0 101789
09:00+14sw23510 0.0 1017941
12:00+17ssw234048 0.0 10161727
15:00+19sw24365 0.0 10162036
18:00+18s35455 0.0 10151745
21:00+12s36712 0.0 1015103